Погода в Кинтаново

Россия / Ярославская область     58°22′18″N   40°57′05″E
темп.,
°C
ветер,
м/с
пор.,
м/с
влажн.,
%
обл.,
%
осадки,
мм/ч
давл.,
гПа
погр.,
м
13 августа, сб
сб1300:00+15зсз228547 0.0 102230
03:00+14сз129234 0.0 102213
06:00+14с11835 0.0 102330
09:00+21зсз01545 0.0 1023442
12:00+25зсз22395 0.0 10221349
15:00+26зсз233740 0.0 10211870
18:00+25зсз115313 0.0 102019
21:00+18ссз117150 0.0 102112
14 августа, вс
вс1400:00+16з117996 0.0 102111
03:00+18ссв117496 0.0 102113
06:00+18всв1277100 0.0 102150
09:00+21в126665 0.0 1022303
12:00+23св115887 0.0 1022607
15:00+26св214719 0.0 10211380
18:00+24всв236172 0.0 1021117
21:00+18всв238014 0.0 102242
15 августа, пн
пн1500:00+17всв228523 0.0 102231
03:00+17в118299 0.0 102215
06:00+18всв2278100 0.0 102367
09:00+21в236998 0.0 1023225
12:00+27ююв114625 0.0 10231021
15:00+28зюз213839 0.0 10231997
18:00+24ссв115474 0.0 102213
21:00+21всв2259100 0.0 102339
16 августа, вт
вт1600:00+20юв2463100 0.0 1024110
03:00+19вюв236696 0.0 102560
06:00+18вюв2274100 0.0 102554
09:00+23ююв2356100 0.0 1025402
12:00+26ююв3347100 0.0 1025927
15:00+28ююв12388 0.0 10241835
18:00+26ссз115078 0.0 102411
21:00+20ююв1262100 0.0 102417
17 августа, ср
ср1700:00+18ююв1269100 0.0 102513
03:00+18юв227319 0.0 102423
06:00+17ююв22786 0.0 102564
09:00+24ююв24526 0.0 1024466
12:00+28ююв23386 0.0 10232163
15:00+29ююв223334 0.0 10222510
18:00+26ююв244874 0.0 1022123
21:00+20ююв235918 0.0 102354